Triumph — WDC9555 — position and weather

sailwx.info

Track history (hours):
 
Tides and Currents Weather Stations Pressure Air Temp Water Temp Dewpoint Dewpoint Depression Visibility Wind Speed Wind Dir Waves Ship Positions

Triumph

Owner: WESTERN TOWBOAT CO, SEATTLE, WA. More information available from US FCC via Universal Licensing System and Coast Guard Vessel Documentation Center.

Last reported at 2014-Oct-24 01:11 UTC. Time now 2014-Oct-25 19:48 UTC.
Position N 47°39' W 122°22'.

Length 24 m; draft 5 m.

Type: Tow > 200 m length. MMSI: 367103880.

Date/timePositionNaut miles runAvg speedWind from/ knotsBaromVisibWave heightAir tempDewpointWater temp
2014-Oct-24 01:11N 47°39' W 122°22'0 2.7
2014-Oct-24 01:07N 47°39' W 122°22'1 1.4
2014-Oct-24 00:33N 47°39' W 122°21'0 0.3
2014-Oct-24 00:32N 47°39' W 122°21'2 1.6
2014-Oct-23 23:33N 47°40' W 122°23'0 3.6
2014-Oct-23 23:32N 47°40' W 122°23'2 2.2
2014-Oct-23 22:34N 47°41' W 122°25'0 3.4
2014-Oct-23 22:32N 47°41' W 122°26'6 6.1
2014-Oct-23 21:34N 47°36' W 122°22'0 1.2
2014-Oct-23 21:31N 47°35' W 122°22'0 0.0
2014-Oct-23 20:34N 47°35' W 122°21'0 1.1
2014-Oct-23 20:31N 47°35' W 122°21'0 0.2
2014-Oct-23 19:33N 47°35' W 122°21'0 0.0
2014-Oct-23 19:31N 47°35' W 122°21'0 0.0
2014-Oct-23 18:33N 47°35' W 122°21'0 0.0
2014-Oct-23 18:31N 47°35' W 122°21'1 1.3
2014-Oct-23 17:33N 47°34' W 122°21'0 0.0
2014-Oct-23 17:31N 47°34' W 122°21'  
2014-Oct-18 23:21N 47°34' W 122°21'0 0.0
2014-Oct-18 23:19N 47°34' W 122°21'2 2.3
2014-Oct-18 22:33N 47°35' W 122°23'0 2.4
2014-Oct-18 22:30N 47°36' W 122°23'5 5.0
2014-Oct-18 21:33N 47°39' W 122°28'0 5.9
2014-Oct-18 21:29N 47°39' W 122°28'6 6.0
2014-Oct-18 20:33N 47°44' W 122°27'0 5.7
2014-Oct-18 20:29N 47°45' W 122°27'6 6.1
2014-Oct-18 19:33N 47°50' W 122°29'0 6.2
2014-Oct-18 19:29N 47°51' W 122°29'6 6.5
2014-Oct-18 18:33N 47°56' W 122°33'3 7.7
2014-Oct-18 18:13N 47°58' W 122°36'6 7.1
2014-Oct-18 17:22N 48°04' W 122°39'5 7.1
2014-Oct-18 16:38N 48°08' W 122°43'1 8.0
2014-Oct-18 16:33N 48°09' W 122°44'1 7.6
2014-Oct-18 16:23N 48°10' W 122°45'7 6.7
2014-Oct-18 15:24N 48°16' W 122°48'6 6.9
2014-Oct-18 14:33N 48°22' W 122°46'8 7.6
2014-Oct-18 13:33N 48°29' W 122°45'0 8.9
2014-Oct-18 13:33N 48°29' W 122°45'8 7.9
2014-Oct-18 12:33N 48°37' W 122°45'3 7.5
2014-Oct-18 12:13N 48°39' W 122°44'4 6.7
2014-Oct-18 11:33N 48°44' W 122°46'1 6.7
2014-Oct-18 11:27N 48°44' W 122°47'6 6.5
2014-Oct-18 10:32N 48°48' W 122°54'7 6.7
2014-Oct-18 09:33N 48°52' W 123°02'7 6.5
2014-Oct-18 08:33N 48°56' W 123°10'6 6.2
2014-Oct-18 07:33N 48°60' W 123°17'6 5.8
2014-Oct-18 06:33N 49°04' W 123°24'6 5.4
2014-Oct-18 05:31N 49°08' W 123°28'6 5.5
2014-Oct-18 04:29N 49°13' W 123°33'5 5.0
2014-Oct-18 03:33N 49°17' W 123°36'5 5.0
2014-Oct-18 02:33N 49°21' W 123°41'5 5.4
2014-Oct-18 01:33N 49°26' W 123°45'2 2.2
2014-Oct-18 00:32N 49°28' W 123°45'0 0.0
2014-Oct-17 23:33N 49°28' W 123°45'0 0.0
2014-Oct-17 22:33N 49°28' W 123°45'0 0.0
2014-Oct-17 21:33N 49°28' W 123°45'2 1.7
2014-Oct-17 20:33N 49°26' W 123°45'2 1.8
2014-Oct-17 19:33N 49°25' W 123°45'1 1.3
2014-Oct-17 18:33N 49°24' W 123°43'9 8.6
2014-Oct-17 17:33N 49°17' W 123°35'8 8.3
2014-Oct-17 16:33N 49°10' W 123°28'8 8.1
2014-Oct-17 15:33N 49°04' W 123°21'8 8.0
2014-Oct-17 14:33N 48°59' W 123°11'7 7.3
2014-Oct-17 13:32N 48°54' W 123°03'7 7.0
2014-Oct-17 12:33N 48°49' W 122°55'7 7.2
2014-Oct-17 11:32N 48°45' W 122°46'6 6.5
2014-Oct-17 10:33N 48°39' W 122°44'6 6.4
2014-Oct-17 09:33N 48°33' W 122°45'1 6.4
2014-Oct-17 09:24N 48°32' W 122°45'6 6.9
2014-Oct-17 08:33N 48°26' W 122°44'11 7.3
2014-Oct-17 07:02N 48°15' W 122°48'6 6.4
2014-Oct-17 06:10N 48°10' W 122°45'5 7.3
2014-Oct-17 05:32N 48°07' W 122°39'8 7.7
2014-Oct-17 04:28N 47°59' W 122°35'2 7.2
2014-Oct-17 04:14N 47°58' W 122°34'5 7.3
2014-Oct-17 03:33N 47°54' W 122°29'1 7.8
2014-Oct-17 03:24N 47°53' W 122°28'7 7.9
2014-Oct-17 02:33N 47°47' W 122°26'1 7.9
2014-Oct-17 02:29N 47°46' W 122°25'7 8.0
2014-Oct-17 01:33N 47°39' W 122°26'1 7.6
2014-Oct-17 01:29N 47°38' W 122°26'6 6.6
2014-Oct-17 00:33N 47°33' W 122°21'0 0.1
2014-Oct-17 00:29N 47°33' W 122°21'2 2.1
2014-Oct-16 23:33N 47°35' W 122°22'0 0.0
2014-Oct-16 23:29N 47°35' W 122°22'3 3.2
2014-Oct-16 22:33N 47°37' W 122°25'0 5.2
2014-Oct-16 22:29N 47°38' W 122°25'4 4.7
2014-Oct-16 21:33N 47°42' W 122°28'0 4.3
2014-Oct-16 21:33N 47°42' W 122°28'5 4.8
2014-Oct-16 20:34N 47°46' W 122°27'0 5.6
2014-Oct-16 20:33N 47°46' W 122°27'5 5.1
2014-Oct-16 19:33N 47°51' W 122°28'0 7.0
2014-Oct-16 19:33N 47°51' W 122°29'6 5.8
2014-Oct-16 18:33N 47°56' W 122°33'3 3.5
2014-Oct-16 17:33N 47°54' W 122°37'4 4.4
2014-Oct-16 16:33N 47°50' W 122°39'5 4.9
2014-Oct-16 15:33N 47°46' W 122°43'0 0.2
2014-Oct-16 14:33N 47°46' W 122°43'0 0.0
2014-Oct-16 14:28N 47°46' W 122°43'0 0.0
2014-Oct-16 13:33N 47°46' W 122°43'0 0.0
2014-Oct-16 13:27N 47°46' W 122°43'2 1.7
2014-Oct-16 12:33N 47°47' W 122°42'6 9.3
2014-Oct-16 11:52N 47°52' W 122°36'3 9.0
2014-Oct-16 11:33N 47°55' W 122°37'5 7.6
2014-Oct-16 10:57N 47°56' W 122°31'511.7
2014-Oct-16 10:33N 47°52' W 122°28'011.4
2014-Oct-16 10:32N 47°52' W 122°28'1211.9
2014-Oct-16 09:33N 47°40' W 122°27'011.5
2014-Oct-16 09:32N 47°40' W 122°27'7 7.2
2014-Oct-16 08:33N 47°34' W 122°21'0 0.0
2014-Oct-16 08:02N 47°34' W 122°21'0 0.0
2014-Oct-16 07:33N 47°34' W 122°21'0 0.2
2014-Oct-16 07:32N 47°34' W 122°21'0 0.0
2014-Oct-16 06:33N 47°34' W 122°21'0 0.0
2014-Oct-16 06:22N 47°34' W 122°21'0 0.0
2014-Oct-16 05:57N 47°34' W 122°21'0 0.0
2014-Oct-15 02:38N 47°34' W 122°21'0 1.0
2014-Oct-15 02:33N 47°34' W 122°21'0 6.9
2014-Oct-15 02:33N 47°34' W 122°21'1010.0
2014-Oct-15 01:33N 47°43' W 122°27'111.2
2014-Oct-15 01:28N 47°44' W 122°27'1011.2
2014-Oct-15 00:33N 47°54' W 122°31'011.4
2014-Oct-15 00:33N 47°54' W 122°31'4 3.7
2014-Oct-14 23:33N 47°52' W 122°35'1 1.3
2014-Oct-14 22:33N 47°53' W 122°35'3 3.4
2014-Oct-14 21:33N 47°56' W 122°34'4 8.2
2014-Oct-14 21:03N 47°53' W 122°30'4 8.2
2014-Oct-14 20:33N 47°49' W 122°28'1 8.0
2014-Oct-14 20:27N 47°48' W 122°28'8 8.4
2014-Oct-14 19:33N 47°40' W 122°29'0 3.1
2014-Oct-14 19:33N 47°40' W 122°29'8 8.1
2014-Oct-14 18:33N 47°32' W 122°28'0 6.6
2014-Oct-14 18:32N 47°32' W 122°28'8 8.2
2014-Oct-14 17:33N 47°25' W 122°32'7 7.1
2014-Oct-14 16:33N 47°18' W 122°28'2 1.7
2014-Oct-14 15:33N 47°17' W 122°25'1010.0
2014-Oct-14 14:33N 47°27' W 122°23'512.2
2014-Oct-14 14:09N 47°32' W 122°25'3 5.9
2014-Oct-14 13:33N 47°35' W 122°22'0 6.7
2014-Oct-14 13:29N 47°34' W 122°21'  
Track history (hours):
 
Tides and Currents Weather Stations Pressure Air Temp Water Temp Dewpoint Dewpoint Depression Visibility Wind Speed Wind Dir Waves Ship Positions

Triumph

Owner: WESTERN TOWBOAT CO, SEATTLE, WA. More information available from US FCC via Universal Licensing System and Coast Guard Vessel Documentation Center.

Last reported at 2014-Oct-24 01:11 UTC. Time now 2014-Oct-25 19:48 UTC.
Position N 47°39' W 122°22'.

Length 24 m; draft 5 m.

Type: Tow > 200 m length. MMSI: 367103880.

Date/timePositionNaut miles runAvg speedWind from/ knotsBaromVisibWave heightAir tempDewpointWater temp
2014-Oct-24 01:11N 47°39' W 122°22'0 2.7
2014-Oct-24 01:07N 47°39' W 122°22'1 1.4
2014-Oct-24 00:33N 47°39' W 122°21'0 0.3
2014-Oct-24 00:32N 47°39' W 122°21'2 1.6
2014-Oct-23 23:33N 47°40' W 122°23'0 3.6
2014-Oct-23 23:32N 47°40' W 122°23'2 2.2
2014-Oct-23 22:34N 47°41' W 122°25'0 3.4
2014-Oct-23 22:32N 47°41' W 122°26'6 6.1
2014-Oct-23 21:34N 47°36' W 122°22'0 1.2
2014-Oct-23 21:31N 47°35' W 122°22'0 0.0
2014-Oct-23 20:34N 47°35' W 122°21'0 1.1
2014-Oct-23 20:31N 47°35' W 122°21'0 0.2
2014-Oct-23 19:33N 47°35' W 122°21'0 0.0
2014-Oct-23 19:31N 47°35' W 122°21'0 0.0
2014-Oct-23 18:33N 47°35' W 122°21'0 0.0
2014-Oct-23 18:31N 47°35' W 122°21'1 1.3
2014-Oct-23 17:33N 47°34' W 122°21'0 0.0
2014-Oct-23 17:31N 47°34' W 122°21'  
2014-Oct-18 23:21N 47°34' W 122°21'0 0.0
2014-Oct-18 23:19N 47°34' W 122°21'2 2.3
2014-Oct-18 22:33N 47°35' W 122°23'0 2.4
2014-Oct-18 22:30N 47°36' W 122°23'5 5.0
2014-Oct-18 21:33N 47°39' W 122°28'0 5.9
2014-Oct-18 21:29N 47°39' W 122°28'6 6.0
2014-Oct-18 20:33N 47°44' W 122°27'0 5.7
2014-Oct-18 20:29N 47°45' W 122°27'6 6.1
2014-Oct-18 19:33N 47°50' W 122°29'0 6.2
2014-Oct-18 19:29N 47°51' W 122°29'6 6.5
2014-Oct-18 18:33N 47°56' W 122°33'3 7.7
2014-Oct-18 18:13N 47°58' W 122°36'6 7.1
2014-Oct-18 17:22N 48°04' W 122°39'5 7.1
2014-Oct-18 16:38N 48°08' W 122°43'1 8.0
2014-Oct-18 16:33N 48°09' W 122°44'1 7.6
2014-Oct-18 16:23N 48°10' W 122°45'7 6.7
2014-Oct-18 15:24N 48°16' W 122°48'6 6.9
2014-Oct-18 14:33N 48°22' W 122°46'8 7.6
2014-Oct-18 13:33N 48°29' W 122°45'0 8.9
2014-Oct-18 13:33N 48°29' W 122°45'8 7.9
2014-Oct-18 12:33N 48°37' W 122°45'3 7.5
2014-Oct-18 12:13N 48°39' W 122°44'4 6.7
2014-Oct-18 11:33N 48°44' W 122°46'1 6.7
2014-Oct-18 11:27N 48°44' W 122°47'6 6.5
2014-Oct-18 10:32N 48°48' W 122°54'7 6.7
2014-Oct-18 09:33N 48°52' W 123°02'7 6.5
2014-Oct-18 08:33N 48°56' W 123°10'6 6.2
2014-Oct-18 07:33N 48°60' W 123°17'6 5.8
2014-Oct-18 06:33N 49°04' W 123°24'6 5.4
2014-Oct-18 05:31N 49°08' W 123°28'6 5.5
2014-Oct-18 04:29N 49°13' W 123°33'5 5.0
2014-Oct-18 03:33N 49°17' W 123°36'5 5.0
2014-Oct-18 02:33N 49°21' W 123°41'5 5.4
2014-Oct-18 01:33N 49°26' W 123°45'2 2.2
2014-Oct-18 00:32N 49°28' W 123°45'0 0.0
2014-Oct-17 23:33N 49°28' W 123°45'0 0.0
2014-Oct-17 22:33N 49°28' W 123°45'0 0.0
2014-Oct-17 21:33N 49°28' W 123°45'2 1.7
2014-Oct-17 20:33N 49°26' W 123°45'2 1.8
2014-Oct-17 19:33N 49°25' W 123°45'1 1.3
2014-Oct-17 18:33N 49°24' W 123°43'9 8.6
2014-Oct-17 17:33N 49°17' W 123°35'8 8.3
2014-Oct-17 16:33N 49°10' W 123°28'8 8.1
2014-Oct-17 15:33N 49°04' W 123°21'8 8.0
2014-Oct-17 14:33N 48°59' W 123°11'7 7.3
2014-Oct-17 13:32N 48°54' W 123°03'7 7.0
2014-Oct-17 12:33N 48°49' W 122°55'7 7.2
2014-Oct-17 11:32N 48°45' W 122°46'6 6.5
2014-Oct-17 10:33N 48°39' W 122°44'6 6.4
2014-Oct-17 09:33N 48°33' W 122°45'1 6.4
2014-Oct-17 09:24N 48°32' W 122°45'6 6.9
2014-Oct-17 08:33N 48°26' W 122°44'11 7.3
2014-Oct-17 07:02N 48°15' W 122°48'6 6.4
2014-Oct-17 06:10N 48°10' W 122°45'5 7.3
2014-Oct-17 05:32N 48°07' W 122°39'8 7.7
2014-Oct-17 04:28N 47°59' W 122°35'2 7.2
2014-Oct-17 04:14N 47°58' W 122°34'5 7.3
2014-Oct-17 03:33N 47°54' W 122°29'1 7.8
2014-Oct-17 03:24N 47°53' W 122°28'7 7.9
2014-Oct-17 02:33N 47°47' W 122°26'1 7.9
2014-Oct-17 02:29N 47°46' W 122°25'7 8.0
2014-Oct-17 01:33N 47°39' W 122°26'1 7.6
2014-Oct-17 01:29N 47°38' W 122°26'6 6.6
2014-Oct-17 00:33N 47°33' W 122°21'0 0.1
2014-Oct-17 00:29N 47°33' W 122°21'2 2.1
2014-Oct-16 23:33N 47°35' W 122°22'0 0.0
2014-Oct-16 23:29N 47°35' W 122°22'3 3.2
2014-Oct-16 22:33N 47°37' W 122°25'0 5.2
2014-Oct-16 22:29N 47°38' W 122°25'4 4.7
2014-Oct-16 21:33N 47°42' W 122°28'0 4.3
2014-Oct-16 21:33N 47°42' W 122°28'5 4.8
2014-Oct-16 20:34N 47°46' W 122°27'0 5.6
2014-Oct-16 20:33N 47°46' W 122°27'5 5.1
2014-Oct-16 19:33N 47°51' W 122°28'0 7.0
2014-Oct-16 19:33N 47°51' W 122°29'6 5.8
2014-Oct-16 18:33N 47°56' W 122°33'3 3.5
2014-Oct-16 17:33N 47°54' W 122°37'4 4.4
2014-Oct-16 16:33N 47°50' W 122°39'5 4.9
2014-Oct-16 15:33N 47°46' W 122°43'0 0.2
2014-Oct-16 14:33N 47°46' W 122°43'0 0.0
2014-Oct-16 14:28N 47°46' W 122°43'0 0.0
2014-Oct-16 13:33N 47°46' W 122°43'0 0.0
2014-Oct-16 13:27N 47°46' W 122°43'2 1.7
2014-Oct-16 12:33N 47°47' W 122°42'6 9.3
2014-Oct-16 11:52N 47°52' W 122°36'3 9.0
2014-Oct-16 11:33N 47°55' W 122°37'5 7.6
2014-Oct-16 10:57N 47°56' W 122°31'511.7
2014-Oct-16 10:33N 47°52' W 122°28'011.4
2014-Oct-16 10:32N 47°52' W 122°28'1211.9
2014-Oct-16 09:33N 47°40' W 122°27'011.5
2014-Oct-16 09:32N 47°40' W 122°27'7 7.2
2014-Oct-16 08:33N 47°34' W 122°21'0 0.0
2014-Oct-16 08:02N 47°34' W 122°21'0 0.0
2014-Oct-16 07:33N 47°34' W 122°21'0 0.2
2014-Oct-16 07:32N 47°34' W 122°21'0 0.0
2014-Oct-16 06:33N 47°34' W 122°21'0 0.0
2014-Oct-16 06:22N 47°34' W 122°21'0 0.0
2014-Oct-16 05:57N 47°34' W 122°21'0 0.0
2014-Oct-15 02:38N 47°34' W 122°21'0 1.0
2014-Oct-15 02:33N 47°34' W 122°21'0 6.9
2014-Oct-15 02:33N 47°34' W 122°21'1010.0
2014-Oct-15 01:33N 47°43' W 122°27'111.2
2014-Oct-15 01:28N 47°44' W 122°27'1011.2
2014-Oct-15 00:33N 47°54' W 122°31'011.4
2014-Oct-15 00:33N 47°54' W 122°31'4 3.7
2014-Oct-14 23:33N 47°52' W 122°35'1 1.3
2014-Oct-14 22:33N 47°53' W 122°35'3 3.4
2014-Oct-14 21:33N 47°56' W 122°34'4 8.2
2014-Oct-14 21:03N 47°53' W 122°30'4 8.2
2014-Oct-14 20:33N 47°49' W 122°28'1 8.0
2014-Oct-14 20:27N 47°48' W 122°28'8 8.4
2014-Oct-14 19:33N 47°40' W 122°29'0 3.1
2014-Oct-14 19:33N 47°40' W 122°29'8 8.1
2014-Oct-14 18:33N 47°32' W 122°28'0 6.6
2014-Oct-14 18:32N 47°32' W 122°28'8 8.2
2014-Oct-14 17:33N 47°25' W 122°32'7 7.1
2014-Oct-14 16:33N 47°18' W 122°28'2 1.7
2014-Oct-14 15:33N 47°17' W 122°25'1010.0
2014-Oct-14 14:33N 47°27' W 122°23'512.2
2014-Oct-14 14:09N 47°32' W 122°25'3 5.9
2014-Oct-14 13:33N 47°35' W 122°22'0 6.7
2014-Oct-14 13:29N 47°34' W 122°21'  

Dump ship's entire track history